Location: Miles
(41.4492°N, 81.6087°W)
Time: 14:44:51
(UTC+00:00)

A-11 Canister half - Pass Details

Date: 14 September 2024
Orbit: 1515 x 1685 km, 47.2° (Epoch: 14 October)

Event Time Altitude Azimuth Distance (km) Brightness Sun altitude
Rises 03:09:31 0° 275° (W) 4,686 12.1 -36.1°
Reaches altitude 10° 03:12:38 10° 279° (W) 3,691 11.5 -36.5°
Maximum altitude 03:21:48 61° 359° (N) 1,685 9.2 -37.6°
Enters shadow 03:23:29 54° 40° (NE) 1,790 9.2 -37.8°
